Location: ?astrovice
(49.6513°N, 14.9287°E)
Time: 11:38:32
(UTC+00:00)

Cosmos 1607 - Pass Details

Date: 09 April 2020
Orbit: 917 x 985 km, 65.0° (Epoch: 24 May)

Event Time Altitude Azimuth Distance (km) Brightness Sun altitude
Exits shadow 21:28:00 45° 67° (ENE) 1,267 4.5 -28.8°
Drops below altitude 10° 21:32:24 10° 44° (NE) 2,675 6.5 -29.1°
Sets 21:35:00 0° 41° (NE) 3,634 7.3 -29.3°
